Regional Weather Roundup
Issued by NWS

Home | Current Version | Previous Version | Graphics & Text | Print | Product List | Glossary On
Versions: 1 2 3 4 5 6 7 8 9 10 11 12 13 14 15 16 17 18 19 20 21 22 23 24 25 26 27 28 29 30 31 32 33 34 35 36 37 38 39 40 41 42 43 44 45 46 47 48 49 50
000
ASUS43 KLSX 100657
RWRMO

WEATHER SUMMARY FOR MISSOURI
NATIONAL WEATHER SERVICE SPRINGFIELD MO
100 AM CST WED FEB 10 2016

NOTE: "FAIR" INDICATES FEW OR NO CLOUDS BELOW 12,000 FEET WITH NO
       SIGNIFICANT WEATHER AND/OR OBSTRUCTIONS TO VISIBILITY.
       CURRENT SKY AND/OR WEATHER CONDITIONS ARE NOT AVAILABLE FOR
       CHILLICOTHE AND FARMINGTON.

MOZ001>031-035>038-043-044-053-054-100800-
...NORTHERN AND WESTERN MISSOURI...

CITY           SKY/WX    TMP DP  RH WIND       PRES   REMARKS
KANSAS CTY INT CLEAR     17  10  74 W6        30.23F WCI   9
LEE`S SUMMIT   CLEAR     21   9  59 W7        30.23F WCI  12
ST JOSEPH      PTCLDY    19  10  68 CALM      30.24F
CHILLICOTHE      N/A     20  11  68 NW5       30.23S WCI  13

$$
MOZ066>068-077>081-088>096-101>105-100800-
...SOUTHWEST MISSOURI...

CITY           SKY/WX    TMP DP  RH WIND       PRES   REMARKS
SPRINGFIELD    CLEAR     22   6  50 NW10      30.20F WCI  11
JOPLIN         CLEAR     21   7  54 W3        30.27F

$$
MOZ032>034-039>042-045>050-055>058-069>072-100800-
...CENTRAL MISSOURI...

CITY           SKY/WX    TMP DP  RH WIND       PRES   REMARKS
COLUMBIA       NOT AVBL
JEFFERSON CITY PTCLDY    18   7  62 W5        30.22F WCI  11
ROLLA          CLEAR     17   5  59 NW12      30.15R WCI   4
SEDALIA        CLEAR     20   9  62 NW6       30.23S WCI  12

$$
MOZ051-052-059>065-100800-
...EAST CENTRAL MISSOURI...

CITY           SKY/WX    TMP DP  RH WIND       PRES   REMARKS
ST LOUIS INTL  FLURRIES  19   7  59 NW17      30.14S WCI   4

$$
MOZ072>076-082>087-097>100-106>115-100800-
...SOUTH CENTRAL AND SOUTHEAST MISSOURI...

CITY           SKY/WX    TMP DP  RH WIND       PRES   REMARKS
CAPE GIRARDEAU CLEAR     22   9  57 NW13      30.14R WCI  10
POPLAR BLUFF   CLEAR     23   7  50 W6        30.17R WCI  16
WEST PLAINS    CLEAR     22   2  42 NW17G23   30.16S WCI   8

$$


USA.gov is the U.S. government's official web portal to all federal, state and local government web resources and services.